Greenwood, MS

5:34 PM CST on February 27, 2017 (GMT -0600)
Greenwood-Leflore

Weather History for KGWO - October, 2013

Change the Weather History Date:

Wednesday, October 23, 2013

  Actual Average Record
Temperature  
Mean Temperature 52 °F 62 °F  
Max Temperature 65 °F 75 °F 87 °F (2010)
Min Temperature 39 °F 49 °F 33 °F (1999)
Degree Days  
Heating Degree Days 13 5  
Month to date heating degree days 70 70  
Since 1 July heating degree days 70 82  
Cooling Degree Days 0 2  
Month to date cooling degree days 101 81  
Year to date cooling degree days 2081 2128  
Growing Degree Days 2 (Base 50)    
Moisture  
Dew Point 42 °F    
Average Humidity 70    
Maximum Humidity 100    
Minimum Humidity 39    
Precipitation  
Precipitation 0.00 in 0.13 in 1.69 in (1957)
Month to date precipitation 1.01 2.90  
Year to date precipitation 47.35 40.63  
Sea Level Pressure  
Sea Level Pressure 30.10 in    
Wind  
Wind Speed 3 mph (North)    
Max Wind Speed 13 mph    
Max Gust Speed 18 mph    
Visibility 7 miles    
Events Fog    
T = Trace of Precipitation, MM = Missing Value Source: NWS Daily Summary

Daily Weather History Graph

Daily Weather History Graph

Search for Another Location

Airport or City:

Trip Planner

Search our weather history database for the weather conditions in past years. The results will help you decide how hot, cold, wet, or windy it might be!

Date:

Astronomy

Oct. 23, 2013 Rise Set
Actual Time 7:11 AM CDT 6:17 PM CDT
Civil Twilight 6:46 AM CDT 6:42 PM CDT
Nautical Twilight 6:17 AM CDT 7:11 PM CDT
Astronomical Twilight 5:48 AM CDT 7:40 PM CDT
Moon 9:55 PM CDT (10/23) 11:21 AM CDT (10/23)
Length of Visible Light 11h 56m
Length of Day
11h 05m
Waning Gibbous, 79% of the Moon is Illuminated
Oct 23
Waning Gibbous
Oct 26
Last Quarter
Nov 3
New
Nov 9
First Quarter
Nov 17
Full

Hourly Weather History & Observations

Time (CDT) Temp. Windchill Dew Point Humidity Pressure Visibility Wind Dir Wind Speed Gust Speed Precip Events Conditions
12:53 AM 46.9 °F - 45.0 °F 93% 30.00 in 10.0 mi South 4.6 mph - N/A   Clear
1:53 AM 46.9 °F - 45.0 °F 93% 30.01 in 10.0 mi SSW 4.6 mph - N/A   Clear
2:53 AM 46.9 °F - 46.0 °F 97% 30.02 in 10.0 mi Calm Calm - N/A   Clear
3:53 AM 46.0 °F - 45.0 °F 96% 30.03 in 9.0 mi Calm Calm - N/A   Clear
4:53 AM 45.0 °F 43.5 °F 44.1 °F 97% 30.04 in 10.0 mi SSW 3.5 mph - N/A   Clear
5:53 AM 44.1 °F - 43.0 °F 96% 30.06 in 3.0 mi Calm Calm - N/A   Clear
5:57 AM 42.8 °F - 42.8 °F 100% 30.06 in 1.8 mi Calm Calm - N/A   Clear
6:07 AM 42.8 °F - 41.0 °F 93% 30.06 in 0.2 mi Calm Calm - N/A Fog Fog
6:14 AM 42.8 °F - 41.0 °F 93% 30.07 in 0.2 mi Calm Calm - N/A Fog Fog
6:38 AM 42.8 °F - 41.0 °F 93% 30.08 in 0.5 mi Calm Calm - N/A Fog Fog
6:53 AM 42.1 °F - 42.1 °F 100% 30.08 in 1.0 mi Calm Calm - N/A   Mist
7:03 AM 41.0 °F - 41.0 °F 100% 30.08 in 0.5 mi Calm Calm - N/A Fog Fog
7:13 AM 39.2 °F - 39.2 °F 100% 30.08 in 0.2 mi Calm Calm - N/A Fog Fog
7:30 AM 39.2 °F 37.0 °F 39.2 °F 100% 30.09 in 0.2 mi North 3.5 mph - N/A Fog Fog
7:39 AM 42.8 °F - 42.8 °F 100% 30.10 in 0.5 mi Calm Calm - N/A Fog Fog
7:53 AM 44.1 °F - 43.0 °F 96% 30.10 in 0.8 mi Calm Calm - N/A   Mist
7:56 AM 44.6 °F - 42.8 °F 93% 30.10 in 1.2 mi Calm Calm - N/A   Partly Cloudy
7:59 AM 44.6 °F - 44.6 °F 100% 30.11 in 4.0 mi Calm Calm - N/A   Partly Cloudy
8:53 AM 53.1 °F - 46.9 °F 80% 30.14 in 10.0 mi North 6.9 mph - N/A   Clear
9:53 AM 55.9 °F - 45.0 °F 67% 30.16 in 10.0 mi NNE 9.2 mph - N/A   Clear
10:53 AM 59.0 °F - 42.1 °F 53% 30.17 in 10.0 mi North 8.1 mph - N/A   Clear
11:53 AM 61.0 °F - 41.0 °F 48% 30.16 in 10.0 mi NNW 8.1 mph - N/A   Clear
12:53 PM 62.1 °F - 39.0 °F 43% 30.14 in 10.0 mi North 5.8 mph - N/A   Clear
1:53 PM 63.0 °F - 37.9 °F 40% 30.12 in 10.0 mi North 6.9 mph - N/A   Clear
2:53 PM 64.0 °F - 39.9 °F 41% 30.12 in 10.0 mi North 9.2 mph - N/A   Clear
3:53 PM 63.0 °F - 39.0 °F 41% 30.11 in 10.0 mi NNW 5.8 mph - N/A   Clear
4:53 PM 63.0 °F - 39.0 °F 41% 30.11 in 10.0 mi North 3.5 mph - N/A   Clear
5:53 PM 57.9 °F - 43.0 °F 58% 30.12 in 10.0 mi Calm Calm - N/A   Clear
6:53 PM 51.1 °F - 45.0 °F 80% 30.12 in 10.0 mi Calm Calm - N/A   Clear
7:53 PM 48.0 °F - 45.0 °F 89% 30.13 in 10.0 mi Calm Calm - N/A   Clear
8:53 PM 46.9 °F - 45.0 °F 93% 30.13 in 10.0 mi Calm Calm - N/A   Clear
9:53 PM 46.0 °F - 44.1 °F 93% 30.13 in 10.0 mi Calm Calm - N/A   Clear
10:53 PM 45.0 °F - 43.0 °F 93% 30.12 in 10.0 mi Calm Calm - N/A   Clear
11:53 PM 43.0 °F 41.3 °F 41.0 °F 93% 30.12 in 10.0 mi ENE 3.5 mph - N/A   Clear